Albert Lea, MN

7:02 PM CDT on June 26, 2017 (GMT -0500)
Albert Lea Municipal

Weather History for KAEL - September, 2013

Change the Weather History Date:

Friday, September 6, 2013

  Actual Average Record
Temperature  
Mean Temperature 76 °F -  
Max Temperature 87 °F 74 °F 89 °F (1998)
Min Temperature 66 °F 54 °F 46 °F (2008)
Cooling Degree Days 12    
Growing Degree Days 26 (Base 50)    
Moisture  
Dew Point 63 °F    
Average Humidity 66    
Maximum Humidity 94    
Minimum Humidity 40    
Precipitation  
Precipitation 0.00 in - - ()
Sea Level Pressure  
Sea Level Pressure 30.04 in    
Wind  
Wind Speed 8 mph (South)    
Max Wind Speed 16 mph    
Max Gust Speed 23 mph    
Visibility 10 miles    
Events Thunderstorm    
Averages and records for this station are not official NWS values.
T = Trace of Precipitation, MM = Missing Value Source: NWS Daily Summary

Daily Weather History Graph

Daily Weather History Graph

Search for Another Location

Airport or City:

Trip Planner

Search our weather history database for the weather conditions in past years. The results will help you decide how hot, cold, wet, or windy it might be!

Date:

Astronomy

Sep. 06, 2013 Rise Set
Actual Time 6:43 AM CDT 7:39 PM CDT
Civil Twilight 6:13 AM CDT 8:08 PM CDT
Nautical Twilight 5:38 AM CDT 8:43 PM CDT
Astronomical Twilight 5:02 AM CDT 9:19 PM CDT
Moon 8:00 AM CDT (9/6) 7:59 PM CDT (9/6)
Length of Visible Light 13h 55m
Length of Day
12h 56m
New Moon, 2% of the Moon is Illuminated
Sep 6
New Moon
Sep 12
First Quarter
Sep 19
Full
Sep 26
Last Quarter
Oct 4
New

Hourly Weather History & Observations

Time (CDT) Temp. Heat Index Dew Point Humidity Pressure Visibility Wind Dir Wind Speed Gust Speed Precip Events Conditions
12:12 AM 71.6 °F - 68.0 °F 88% 30.14 in 10.0 mi SSE 8.1 mph - N/A   Clear
12:32 AM 71.6 °F - 68.0 °F 88% 30.15 in 10.0 mi SSE 6.9 mph - N/A   Clear
12:51 AM 71.6 °F - 68.0 °F 88% 30.14 in 10.0 mi SSE 8.1 mph - N/A   Clear
1:12 AM 71.6 °F - 68.0 °F 88% 30.14 in 10.0 mi South 5.8 mph - N/A   Clear
1:32 AM 71.6 °F - 66.2 °F 83% 30.15 in 10.0 mi SSE 8.1 mph - N/A   Clear
1:51 AM 69.8 °F - 66.2 °F 88% 30.14 in 10.0 mi SSE 9.2 mph - N/A   Clear
2:12 AM 69.8 °F - 66.2 °F 88% 30.14 in 10.0 mi SSE 8.1 mph - N/A   Clear
2:32 AM 69.8 °F - 66.2 °F 88% 30.14 in 10.0 mi SSE 8.1 mph - N/A   Clear
2:51 AM 69.8 °F - 66.2 °F 88% 30.14 in 10.0 mi South 6.9 mph - N/A   Clear
3:12 AM 69.8 °F - 66.2 °F 88% 30.14 in 10.0 mi South 8.1 mph - N/A   Clear
3:32 AM 69.8 °F - 66.2 °F 88% 30.13 in 10.0 mi South 5.8 mph - N/A   Clear
3:51 AM 69.8 °F - 66.2 °F 88% 30.13 in 10.0 mi South 5.8 mph - N/A   Clear
4:12 AM 68.0 °F - 66.2 °F 94% 30.13 in 10.0 mi SSE 8.1 mph - N/A   Clear
4:32 AM 68.0 °F - 66.2 °F 94% 30.14 in 10.0 mi South 8.1 mph - N/A   Clear
4:51 AM 68.0 °F - 66.2 °F 94% 30.13 in 10.0 mi SSE 4.6 mph - N/A   Clear
5:12 AM 68.0 °F - 66.2 °F 94% 30.14 in 10.0 mi SE 3.5 mph - N/A   Clear
5:31 AM 68.0 °F - 66.2 °F 94% 30.14 in 10.0 mi SE 5.8 mph - N/A   Clear
5:52 AM 66.2 °F - 64.4 °F 94% 30.14 in 10.0 mi SSE 9.2 mph - N/A   Scattered Clouds
6:11 AM 66.2 °F - 64.4 °F 94% 30.14 in 7.0 mi SSE 8.1 mph - N/A   Scattered Clouds
6:32 AM 66.2 °F - 64.4 °F 94% 30.14 in 7.0 mi SSE 8.1 mph - N/A   Scattered Clouds
6:52 AM 66.2 °F - 64.4 °F 94% 30.14 in 7.0 mi South 8.1 mph - N/A   Scattered Clouds
7:11 AM 66.2 °F - 64.4 °F 94% 30.14 in 7.0 mi SSE 8.1 mph - N/A   Clear
7:32 AM 66.2 °F - 64.4 °F 94% 30.13 in 7.0 mi SSE 8.1 mph - N/A   Clear
7:51 AM 68.0 °F - 64.4 °F 88% 30.13 in 7.0 mi SSE 6.9 mph - N/A Thunderstorm Clear
8:12 AM 69.8 °F - 64.4 °F 83% 30.11 in 7.0 mi SSE 11.5 mph - N/A   Clear
8:31 AM 68.0 °F - 64.4 °F 88% 30.12 in 7.0 mi South 8.1 mph - N/A   Clear
8:51 AM 69.8 °F - 64.4 °F 83% 30.11 in 10.0 mi SSE 11.5 mph - N/A   Clear
9:12 AM 71.6 °F - 66.2 °F 83% 30.11 in 10.0 mi South 6.9 mph - N/A   Clear
9:31 AM 73.4 °F - 64.4 °F 73% 30.10 in 10.0 mi SSW 6.9 mph - N/A   Clear
9:52 AM 75.2 °F - 64.4 °F 69% 30.10 in 10.0 mi South 6.9 mph - N/A   Clear
10:11 AM 77.0 °F - 64.4 °F 65% 30.09 in 10.0 mi South 8.1 mph - N/A   Clear
10:32 AM 78.8 °F - 64.4 °F 61% 30.09 in 10.0 mi South 5.8 mph - N/A   Clear
10:51 AM 78.8 °F - 64.4 °F 61% 30.08 in 10.0 mi South 8.1 mph - N/A   Clear
11:12 AM 80.6 °F 82.3 °F 64.4 °F 58% 30.08 in 10.0 mi South 9.2 mph 16.1 mph N/A   Clear
11:32 AM 82.4 °F 83.9 °F 64.4 °F 54% 30.07 in 10.0 mi SSW 10.4 mph - N/A   Clear
11:51 AM 82.4 °F 83.9 °F 64.4 °F 54% 30.06 in 10.0 mi SSW 10.4 mph - N/A   Clear
12:12 PM 82.4 °F 83.4 °F 62.6 °F 51% 30.05 in 10.0 mi SSW 11.5 mph 18.4 mph N/A   Clear
12:31 PM 84.2 °F 85.0 °F 62.6 °F 48% 30.05 in 10.0 mi SSW 13.8 mph 19.6 mph N/A   Clear
12:52 PM 84.2 °F 84.4 °F 60.8 °F 45% 30.04 in 10.0 mi South 11.5 mph 19.6 mph N/A   Clear
1:11 PM 84.2 °F 85.0 °F 62.6 °F 48% 30.03 in 10.0 mi South 16.1 mph 20.7 mph N/A   Clear
1:32 PM 86.0 °F 86.1 °F 60.8 °F 43% 30.02 in 10.0 mi SSW 15.0 mph 23.0 mph N/A   Clear
1:52 PM 86.0 °F 86.1 °F 60.8 °F 43% 30.01 in 10.0 mi SSW 11.5 mph 20.7 mph N/A   Clear
2:11 PM 87.8 °F 87.6 °F 60.8 °F 40% 30.01 in 10.0 mi SSW 12.7 mph 18.4 mph N/A   Clear
2:32 PM 87.8 °F 87.6 °F 60.8 °F 40% 30.00 in 10.0 mi SSW 10.4 mph 18.4 mph N/A   Clear
2:52 PM 87.8 °F 87.6 °F 60.8 °F 40% 29.99 in 10.0 mi SSW 13.8 mph 21.9 mph N/A   Clear
3:11 PM 87.8 °F 87.6 °F 60.8 °F 40% 29.99 in 10.0 mi SSW 8.1 mph 20.7 mph N/A   Clear
3:32 PM 87.8 °F 87.6 °F 60.8 °F 40% 29.98 in 10.0 mi South 10.4 mph - N/A   Clear
3:52 PM 87.8 °F 87.6 °F 60.8 °F 40% 29.97 in 10.0 mi South 12.7 mph 19.6 mph N/A   Clear
4:11 PM 87.8 °F 87.6 °F 60.8 °F 40% 29.97 in 10.0 mi South 13.8 mph 20.7 mph N/A   Clear
4:32 PM 87.8 °F 87.6 °F 60.8 °F 40% 29.96 in 10.0 mi SSW 10.4 mph 19.6 mph N/A   Clear
4:52 PM 87.8 °F 87.6 °F 60.8 °F 40% 29.96 in 10.0 mi South 9.2 mph 20.7 mph N/A   Clear
5:11 PM 87.8 °F 87.6 °F 60.8 °F 40% 29.95 in 10.0 mi South 11.5 mph 17.3 mph N/A   Clear
5:32 PM 87.8 °F 88.5 °F 62.6 °F 43% 29.95 in 10.0 mi South 11.5 mph - N/A   Clear
5:52 PM 86.0 °F 86.6 °F 62.6 °F 45% 29.95 in 10.0 mi SSW 11.5 mph 17.3 mph N/A   Clear
6:11 PM 86.0 °F 86.6 °F 62.6 °F 45% 29.95 in 10.0 mi South 9.2 mph 16.1 mph N/A   Clear
6:32 PM 84.2 °F 84.4 °F 60.8 °F 45% 29.94 in 10.0 mi South 11.5 mph - N/A   Clear
6:52 PM 84.2 °F 85.0 °F 62.6 °F 48% 29.93 in 10.0 mi South 9.2 mph - N/A   Clear
7:11 PM 82.4 °F 83.4 °F 62.6 °F 51% 29.93 in 10.0 mi South 5.8 mph - N/A   Scattered Clouds
7:32 PM 82.4 °F 83.4 °F 62.6 °F 51% 29.93 in 10.0 mi South 8.1 mph - N/A   Scattered Clouds
7:51 PM 80.6 °F 81.8 °F 62.6 °F 54% 29.93 in 10.0 mi South 8.1 mph - N/A   Clear
8:12 PM 78.8 °F - 62.6 °F 57% 29.93 in 10.0 mi South 8.1 mph - N/A   Clear
8:31 PM 78.8 °F - 62.6 °F 57% 29.93 in 10.0 mi South 6.9 mph - N/A   Clear
8:51 PM 78.8 °F - 62.6 °F 57% 29.93 in 10.0 mi South 8.1 mph - N/A   Mostly Cloudy
9:12 PM 78.8 °F - 60.8 °F 54% 29.93 in 10.0 mi South 8.1 mph - N/A   Scattered Clouds
9:31 PM 77.0 °F - 60.8 °F 57% 29.93 in 10.0 mi South 8.1 mph - N/A   Clear
9:51 PM 77.0 °F - 60.8 °F 57% 29.93 in 10.0 mi South 8.1 mph - N/A   Clear
10:12 PM 77.0 °F - 60.8 °F 57% 29.93 in 10.0 mi South 6.9 mph - N/A   Clear
10:31 PM 77.0 °F - 60.8 °F 57% 29.93 in 10.0 mi South 8.1 mph - N/A   Clear
10:51 PM 75.2 °F - 60.8 °F 61% 29.93 in 10.0 mi South 5.8 mph - N/A   Clear
11:12 PM 75.2 °F - 60.8 °F 61% 29.92 in 10.0 mi South 6.9 mph - N/A   Clear
11:31 PM 75.2 °F - 60.8 °F 61% 29.92 in 10.0 mi SSW 6.9 mph - N/A   Clear
11:51 PM 75.2 °F - 60.8 °F 61% 29.93 in 10.0 mi South 5.8 mph - N/A   Clear